STARLINK-33619, 63324

Orbit data source: Space-Track

STARLINK-33619, 63324 is a payload satellite owned by SpaceX/Seattle (US) in LEO that was launched on Tue, 18 Mar 2025 UTC via an FALCON 9 launch vehicle from the Air Force Eastern Test Range (AFETR). Payload-class satellites include a variety of spacecraft equipped with specific instruments for various scientific and technological missions. These include communications satellites like Starlink; space stations such as the ISS; scientific satellites like the Hubble; Earth observation satellites from companies like Planet Labs, Umbra, and HawkEye 360; GPS; miniature CubeSats for education and research; and military/defense satellites.

Loading next visibility...
Identifier
63324, 2025-057T
Orbit
LEO
Country
Flag of USUS
Related business
Manufacturer
SpaceX/Seattle
Mission
Operational Commercial Communications
Bus & Motor
STARLINK V2MO, Unknown motor
Mass
575 kg wet, ~530 kg dry
Launch date (UTC)
2025-03-18 (9 months ago)
Launch vehicle
FALCON 9
Launch site
Air Force Eastern Test Range (AFETR)
Object type
Payload
Rocket body
Debris
Shape & HBR
Box + 2 Pan, 17.7 m
Radar Cross Section
36.964 m², Large (>1 m²)

Expand to show TLE details & history
Last TLE update: 23 hours ago

TLE from 23 hours ago
0 STARLINK-33619
1 63324U 25057T   25348.49820824  .00036418  00000-0  13257-2 0  9998
2 63324  42.9987 151.5177 0002662 283.8641  76.1914 15.27596243 42754
Epoch: 2025-12-14T11:57Z
TLE epoch observation values (Epoch: 2025-12-14T11:57:25.191Z)
Latitude
-0.00007°
Longitude
-111.2476°
Altitude
482.34 km
Speed
7.626 km/s
True Right ascension
10h 06m 04s
True Declination
0° 00' 00"
Sunlit
Object was in daylight at epoch
Visualization orbit readout
Latitude
Unknown
Longitude
Unknown
Altitude
Unknown
Speed
Unknown
Apparent Right ascension
Unknown
Apparent Declination
Unknown
Sunlit
N/A
Visualization observer readout
Local Sidereal Time
09:33:35
Azimuth
Unknown
Elevation
Unknown
Doppler factor
Unknown
Orbital elements
Apogee altitude
486.773 km
Perigee altitude
483.119 km
Semi-major axis
6,863.083 km
Eccentricity
0.00027
Inclination
42.9987°
RAAN
151.5177°
Arg. of periapsis
283.8641°
True anomaly
76.22103°
Mean anomaly
76.1914°
Eccentric anomaly
76.20621°
Mean motion
3.81737 °/min
Orbital period
94.31 mins
BSTAR
0.0013257
Loading maneuver chart data...
Computing Atmospheric mass density...
Loading historical data...
Loading historical data...
Loading historical data...
Loading historical data...
Loading historical data...
Loading historical data...
Loading historical data...

Documentation

Showing up to 5 results
|